Vertical_Velocity
-1 -1 -0 -1 -1 1 -2 -2 -4 -1 -3 -3 -2 -2 -1 -1 -0 -2 -1 -1 0 2 3 3 2 0 1 1 0 2 1 0 -6 3 -1 1 -2 7 6 16 17 -7 8
-0 1 0 -1 0 -0 -1 -1 0 -2 1 -3 -2 0 -2 0 -1 -0 -2 -0 -1 1 3 2 2 1 1 1 0 1 -0 1 -3 -2 1 -1 1 -5 -5 3 17 9 18
0 -1 -1 0 -0 -0 -0 -1 -1 -2 -1 1 -1 -1 -2 -0 -1 1 -2 -1 0 -0 2 1 4 1 2 1 0 1 -1 1 -1 -3 1 2 -2 0 -8 -7 -0 10 -6
-1 -1 1 -0 -0 -0 -1 -0 -2 -2 -4 -3 2 -0 -2 -0 -1 -0 -1 -2 -1 -0 1 1 3 2 1 2 1 2 1 0 -1 -3 1 2 1 -8 -13 3 -1 16 8
0 0 0 -0 -0 -2 -1 -0 -2 -3 -0 -1 -4 1 1 -2 -1 -0 -1 -0 1 1 0 1 1 2 1 1 1 2 1 1 0 1 1 -0 2 -2 3 26 -1 15 6
1 -0 -2 -1 -2 -1 -2 -3 -3 -1 -3 -3 0 -5 1 -1 -1 1 -3 -3 -0 -1 1 2 1 1 1 1 0 1 1 -1 -1 -0 4 -0 -2 -1 -2 1 6 4 -8
-0 -2 -1 -2 -1 -2 -3 -3 -3 -0 -3 -4 -1 -3 0 -3 -1 1 -1 -2 -1 -0 -0 2 2 1 1 1 1 0 0 -1 -3 -2 -0 5 1 -0 -10 5 6 -0 4
-2 -2 -3 -1 -0 -2 -3 -4 1 -2 -5 -4 -4 -2 2 -3 -1 -1 -2 -1 -0 1 -0 -1 0 1 0 -0 1 0 -0 0 -0 -1 -0 2 2 -1 -1 -2 -1 2 2
-1 -2 -2 -5 -3 -3 -2 -2 -1 -1 -1 -3 -4 -2 -5 -2 1 -1 -3 -1 0 0 -0 -0 -0 2 0 -2 0 0 -0 1 0 -2 -2 0 1 2 1 0 6 -7 -2
-3 -0 -3 -7 -5 -3 -3 -2 -6 -3 -1 -4 -0 -2 -5 -3 -2 -1 -3 -1 0 -1 -1 -1 -1 -0 0 0 -1 1 0 3 -1 -1 -2 0 0 2 -2 -0 0 -3 10
-1 -3 -5 -6 -2 -4 -2 -3 -3 0 -4 -2 2 2 -1 -3 1 -1 -2 -2 -2 -0 -0 -0 -0 -2 -0 -2 -3 -2 0 -1 0 0 1 2 1 1 -0 0 -4 -4 3
-3 -4 -5 -4 -4 -2 -2 1 -2 -4 -4 -2 1 5 2 1 0 0 -1 -2 -2 -2 0 -0 -1 -1 -1 -1 -2 -1 -0 -0 -0 -0 -1 -0 0 1 1 2 -1 0 1
-2 -2 -4 -1 0 -2 -2 -1 -2 -3 -4 -2 -3 -1 2 4 3 1 -0 -0 -1 -3 -1 0 -1 -1 0 -2 -2 -1 1 -0 -1 -2 0 0 0 3 0 -5 -4 -2 -6
-1 -3 -2 -0 0 1 -0 -6 -2 -7 -1 -2 -3 -1 -1 2 1 1 1 2 3 1 -2 -2 -0 -0 -0 -1 -2 -1 1 1 -2 1 1 1 -2 -1 -1 -1 -3 2 4
-2 -3 0 -1 -2 1 1 -8 -3 -3 -10 -6 -6 -6 -8 -1 1 -2 -4 -3 -2 0 -0 -0 -1 -2 -1 -2 -0 -2 -1 -1 -3 2 1 1 0 -1 1 -0 -1 -3 4
-3 -2 -4 -3 -3 -1 -3 11 0 -4 -4 0 -1 -2 2 -1 -1 -1 -1 -1 -0 1 0 -1 -1 1 -1 -1 -1 -1 -2 -1 -1 0 1 1 1 1 1 -0 1 0 1
-4 -3 -2 -2 -3 -2 -2 -5 -2 19 -1 -4 -3 0 3 -1 1 1 -0 -1 1 -0 -1 1 1 -1 -1 -0 -1 -1 -0 0 0 -1 0 0 0 0 -0 2 2 -1 1
-4 -6 -4 -3 -3 -2 -3 -3 -4 -7 -3 3 9 -1 2 2 1 -1 -2 -0 1 2 -1 0 1 1 0 -1 -0 0 -0 -1 -2 -2 0 1 1 0 0 -0 1 3 -1
-3 -2 -2 -4 -2 -5 -3 -3 -1 -1 -2 -2 2 12 4 3 -3 -1 0 -0 -1 0 1 1 1 1 -0 -0 -1 -0 -1 -1 1 1 1 -0 0 -1 -1 1 2 0 1
-3 -4 -5 -3 -2 -1 -2 -1 -1 -1 -2 -3 -2 -3 -4 -2 -0 -0 -1 0 1 1 1 2 1 1 0 -0 -1 -1 -1 -1 -1 0 -0 0 1 1 0 -0 0 -0 -3
-2 -2 -3 1 -1 -1 -2 -5 -4 -2 -2 -1 -2 -1 1 -2 -0 -1 -0 1 1 2 1 1 1 1 1 -0 -1 -1 -0 0 1 0 -1 -0 -0 0 1 -1 0 1 -0
-1 -4 -2 -1 -7 -0 -0 -5 -3 -2 -2 -2 0 2 -1 2 1 0 1 2 1 -0 1 2 1 1 1 1 0 0 0 0 -0 0 0 0 -1 -2 -1 1 1 1 -2
-0 -3 -0 -0 -4 -2 1 -2 -2 -1 -1 -1 -0 1 -2 -1 2 1 1 2 0 1 2 2 2 2 1 1 1 -0 -1 -0 1 1 1 0 -0 -0 0 1 1 1 -1
-0 -2 -3 -1 -5 -3 -1 -2 -0 0 -0 -1 1 0 -2 -2 0 1 -0 2 -2 2 2 3 2 2 1 -0 0 -1 -1 -0 1 1 1 1 0 -2 -1 0 0 0 4
0 -4 -4 -1 -3 -2 0 -0 -1 -1 -1 -2 1 -0 -2 1 2 3 1 3 0 3 4 2 2 2 2 1 0 -0 -0 -0 0 0 0 1 2 2 2 2 3 2 3
-3 -0 -4 -3 -4 -2 0 -1 -2 -1 -1 -1 -0 -2 -2 -1 1 2 2 2 -0 -0 4 4 1 2 3 2 1 1 0 1 0 -1 -0 0 -0 -1 -1 0 1 1 0
Height
3026 3020 3013 3006 2998 2990 2982 2975 2968 2960 2950 2942 2933 2925 2918 2911 2906 2901 2896 2892 2888 2886 2885 2883 2884 2883 2884 2885 2885 2887 2889 2891 2894 2901 2902 2906 2911 2915 2920 2921 2924 2934 2934
3018 3011 3003 2996 2989 2981 2974 2967 2958 2949 2939 2929 2921 2914 2907 2900 2895 2889 2885 2882 2879 2877 2875 2874 2876 2875 2877 2878 2879 2880 2883 2885 2888 2895 2899 2902 2907 2913 2916 2922 2928 2929 2932
3009 3002 2995 2988 2980 2973 2966 2957 2947 2938 2929 2920 2911 2903 2895 2889 2883 2879 2874 2872 2869 2867 2866 2865 2867 2868 2870 2871 2872 2874 2877 2880 2883 2889 2895 2899 2903 2910 2915 2918 2921 2927 2931
3000 2993 2987 2980 2973 2965 2956 2947 2937 2928 2918 2909 2900 2892 2884 2878 2873 2868 2865 2862 2860 2859 2858 2857 2858 2861 2863 2865 2866 2869 2871 2874 2878 2884 2891 2895 2900 2906 2913 2918 2924 2924 2929
2992 2985 2979 2972 2965 2956 2947 2938 2928 2918 2909 2899 2891 2884 2875 2868 2863 2858 2855 2853 2852 2851 2851 2850 2851 2853 2857 2859 2861 2863 2865 2869 2873 2879 2885 2890 2896 2900 2907 2911 2916 2919 2925
2984 2977 2970 2964 2957 2948 2939 2929 2919 2910 2902 2893 2884 2875 2867 2861 2855 2850 2847 2845 2844 2843 2844 2844 2845 2847 2850 2853 2855 2857 2860 2864 2868 2872 2879 2885 2890 2896 2902 2907 2913 2917 2922
2976 2970 2963 2956 2948 2939 2930 2921 2912 2904 2896 2888 2879 2870 2863 2855 2849 2845 2842 2839 2838 2837 2838 2838 2840 2843 2845 2847 2850 2852 2855 2858 2863 2868 2872 2878 2886 2893 2898 2903 2909 2916 2921
2969 2963 2956 2949 2941 2932 2923 2915 2906 2899 2891 2884 2876 2867 2860 2852 2846 2842 2838 2835 2834 2833 2833 2834 2836 2838 2840 2842 2844 2847 2850 2853 2859 2864 2868 2874 2881 2887 2894 2901 2907 2913 2918
2962 2956 2949 2942 2934 2925 2917 2909 2902 2895 2888 2881 2872 2864 2857 2851 2846 2842 2837 2834 2833 2832 2832 2832 2833 2835 2836 2838 2840 2843 2846 2850 2854 2859 2864 2869 2876 2883 2890 2897 2904 2910 2915
2956 2949 2942 2935 2927 2919 2911 2904 2897 2890 2884 2877 2870 2862 2855 2849 2844 2840 2836 2834 2832 2831 2830 2830 2831 2831 2833 2834 2836 2838 2842 2846 2849 2854 2859 2865 2871 2877 2884 2893 2900 2905 2912
2948 2943 2937 2929 2920 2913 2906 2899 2893 2886 2880 2873 2867 2861 2854 2848 2844 2839 2835 2832 2830 2829 2828 2828 2828 2828 2829 2830 2832 2834 2839 2840 2844 2849 2854 2860 2865 2872 2880 2887 2894 2902 2910
2942 2937 2930 2922 2915 2908 2901 2895 2888 2881 2875 2869 2863 2859 2852 2846 2841 2837 2832 2829 2826 2825 2825 2824 2824 2824 2824 2826 2828 2831 2834 2837 2840 2844 2849 2854 2860 2867 2874 2882 2891 2898 2905
2936 2930 2924 2917 2911 2903 2896 2890 2883 2876 2870 2864 2858 2853 2848 2843 2838 2834 2829 2825 2822 2820 2820 2820 2819 2820 2820 2822 2825 2827 2829 2832 2835 2839 2845 2850 2856 2863 2869 2877 2886 2893 2900
2930 2924 2919 2912 2906 2899 2892 2885 2878 2871 2865 2859 2853 2847 2842 2838 2833 2829 2825 2821 2818 2815 2814 2813 2814 2814 2816 2818 2820 2823 2824 2827 2831 2836 2841 2846 2851 2858 2865 2873 2883 2891 2898
2925 2919 2914 2907 2901 2894 2889 2880 2874 2867 2858 2851 2846 2841 2834 2831 2827 2822 2818 2814 2811 2810 2808 2807 2807 2808 2809 2812 2814 2817 2818 2821 2825 2830 2835 2840 2846 2853 2861 2869 2878 2886 2893
2920 2914 2908 2902 2896 2890 2883 2880 2873 2864 2857 2851 2845 2837 2833 2826 2820 2815 2810 2806 2803 2800 2799 2799 2799 2801 2802 2804 2807 2810 2812 2815 2820 2825 2830 2835 2842 2849 2856 2865 2873 2882 2890
2914 2909 2903 2897 2892 2886 2879 2872 2866 2864 2855 2849 2842 2836 2829 2822 2815 2809 2803 2797 2793 2790 2788 2788 2789 2791 2794 2796 2799 2802 2806 2811 2816 2820 2825 2831 2837 2845 2852 2860 2868 2877 2885
2910 2905 2900 2894 2888 2882 2875 2869 2862 2855 2850 2846 2840 2831 2825 2818 2811 2803 2795 2789 2784 2781 2779 2779 2780 2781 2784 2788 2791 2796 2801 2806 2811 2816 2821 2827 2834 2841 2849 2856 2864 2873 2882
2906 2901 2896 2891 2885 2878 2873 2867 2861 2854 2847 2841 2835 2830 2823 2815 2806 2798 2790 2782 2777 2774 2772 2772 2773 2775 2778 2781 2785 2790 2796 2802 2806 2811 2817 2823 2830 2838 2845 2853 2861 2870 2879
2902 2898 2892 2887 2883 2877 2871 2865 2858 2852 2846 2839 2831 2824 2817 2810 2803 2795 2787 2779 2773 2769 2768 2767 2768 2770 2773 2777 2781 2786 2792 2797 2802 2807 2813 2820 2827 2835 2842 2850 2858 2867 2875
2899 2895 2890 2885 2881 2875 2868 2862 2856 2850 2844 2837 2830 2823 2816 2808 2800 2793 2784 2777 2770 2767 2765 2764 2765 2767 2770 2774 2778 2783 2789 2794 2800 2805 2811 2817 2824 2832 2840 2848 2855 2864 2873
2896 2892 2887 2882 2878 2874 2867 2861 2855 2849 2843 2836 2830 2823 2816 2809 2801 2793 2785 2777 2770 2765 2763 2762 2763 2765 2768 2773 2777 2782 2787 2793 2798 2804 2810 2816 2823 2830 2838 2846 2853 2861 2870
2894 2890 2886 2882 2876 2872 2867 2861 2855 2849 2842 2836 2829 2823 2816 2809 2801 2794 2787 2779 2772 2766 2763 2762 2762 2764 2768 2772 2777 2782 2787 2792 2798 2803 2809 2815 2822 2829 2837 2845 2853 2861 2869
2891 2887 2884 2880 2875 2871 2866 2860 2854 2849 2842 2836 2830 2823 2817 2811 2804 2797 2790 2783 2777 2770 2765 2764 2763 2765 2769 2773 2777 2782 2787 2791 2796 2802 2808 2815 2822 2829 2837 2844 2852 2860 2868
2889 2886 2882 2879 2874 2870 2865 2860 2854 2848 2842 2836 2831 2825 2819 2813 2807 2800 2794 2786 2781 2775 2770 2767 2767 2769 2771 2775 2778 2783 2787 2791 2796 2801 2807 2814 2822 2829 2836 2844 2852 2859 2866
2887 2884 2881 2877 2873 2869 2864 2859 2854 2848 2843 2837 2832 2827 2821 2816 2810 2804 2798 2791 2786 2782 2776 2773 2772 2772 2774 2777 2781 2785 2789 2793 2797 2802 2807 2814 2820 2827 2835 2843 2851 2858 2865